Regional Weather Roundup
Issued by NWS

Home | Current Version | Previous Version | Text Only | Print | Product List | Glossary Off
Versions: 1 2 3 4 5 6 7 8 9 10 11 12 13 14 15 16 17 18 19 20 21 22 23 24 25 26 27 28 29 30 31 32 33 34 35 36 37 38 39 40 41 42 43 44 45 46 47 48 49 50

000
ASUS43 KDTX 031401
RWRMI
MICHIGAN HOURLY REGIONAL WEATHER ROUNDUP
NATIONAL WEATHER SERVICE DETROIT/PONTIAC MI
1000 AM EDT THU SEP 03 2015

NOTE: "FAIR" INDICATES FEW OR NO CLOUDS BELOW 12,000 FEET WITH NO
SIGNIFICANT WEATHER AND/OR OBSTRUCTION TO VISIBILITY.

MIZ047>049-052>055-059>063-066>070-074>076-081>083-031500-
SOUTHEAST LOWER MICHIGAN

CITY           SKY/WX    TMP DP  RH WIND       PRES   REMARKS
ADRIAN         MOSUNNY   78  68  71 W8        29.99F
ALMA           CLOUDY    74  71  89 S5        29.96R
ANN ARBOR      SUNNY     77  70  79 S3        29.98S
BAD AXE        FOG       70  70  99 SE3       29.96F VSB 1/4
CARO           MOSUNNY   75  69  80 SE3       29.95S
DETROIT CITY   SUNNY     79  68  69 S5        29.97F
DETROIT        MOSUNNY   79  70  74 SE3       29.98F
FLINT          MOSUNNY   80  69  69 S8        29.96F
GROSSE ILE     SUNNY     79  72  78 S3        29.97S
HILLSDALE      SUNNY     78  72  83 SW5       30.00S
HOWELL         MOSUNNY   78  71  78 S5        29.97F

CITY           SKY/WX    TMP DP  RH WIND       PRES   REMARKS
JACKSON        SUNNY     78  70  76 SW6       29.98S
LAMBERTVILLE   MOSUNNY   81  68  66 CALM      29.98F
LANSING        MOSUNNY   76  71  85 SW6       29.97R HAZE
LAPEER         FAIR      75  70  84 S3        29.98R
MASON          SUNNY     77  69  76 CALM      29.97S
MONROE         SUNNY     77  70  78 SW3       29.98S
MT. CLEMENS    MOSUNNY   78  69  75 S3        29.95F
PONTIAC        MOSUNNY   78  70  76 VRB3      29.97F
PORT HOPE        N/A     70  69  97 SE6       29.94F
PORT HURON     SUNNY     75  70  83 CALM      29.97F
TRI CITIES     PTSUNNY   75  68  78 SE8       29.94F
MIDLAND        CLOUDY    73  65  78 NW12G21   29.95R
TROY           SUNNY     78  69  73 CALM      29.99F
SAGINAW HB     PTSUNNY   75  70  83 SE5       29.94F
$$
MIZ043>046-050>051-056>058-064>065-071>073-077>080-031500-
SOUTHWEST LOWER MICHIGAN

CITY           SKY/WX    TMP DP  RH WIND       PRES   REMARKS
BATTLE CREEK   MOSUNNY   79  70  74 W8        29.98R
BENTON HARBOR  SUNNY     80  69  69 SW7       29.95F
BIG RAPIDS     LGT RAIN  65  64  97 CALM      29.93F
COLDWATER      SUNNY     78  69  75 SW7       29.98F
FREMONT        CLOUDY    70  70 100 SE3       29.93S FOG
HOLLAND        PTSUNNY   78  70  76 SW12      29.94F
GRAND RAPIDS   PTSUNNY   77  70  79 MISG      29.94F
IONIA          PTSUNNY   78  70  75 SW9       29.95R
KALAMAZOO      SUNNY     79  69  71 SW6       29.98R
LUDINGTON      LGT RAIN  71  67  89 SW5       29.91S
MARSHALL       MOSUNNY   78  70  75 SW6       29.98R
MOUNT PLEASANT HVY RAIN  68  65  89 NE3       29.96S
MUSKEGON       LGT RAIN  75  68  78 SW9       29.93R
SOUTH HAVEN    PTSUNNY   79  67  68 W7        29.96R
$$
MIZ016>042-031500-
NORTHERN LOWER MICHIGAN

CITY           SKY/WX    TMP DP  RH WIND       PRES   REMARKS
ALPENA         CLOUDY    68  65  90 W6        29.98S
BEAVER ISLAND  CLOUDY    68  64  88 E12       29.94S
BELLAIRE       LGT RAIN  67  64  91 CALM      29.93F
CADILLAC       LGT RAIN  66  65  97 E8        29.93F
CHARLEVOIX     LGT RAIN  67  66  95 E9        29.96F
FRANKFORT      CLOUDY    69  67  95 SE3       29.90R
GAYLORD        LGT RAIN  64  64 100 NE7       29.96F
GRAYLING       LGT RAIN  65  65  98 E7        29.94F
HARBOR SPRINGS RAIN      64  63  95 NE12      29.95F
HOUGHTON LAKE  HVY RAIN  66  65  96 W6        29.96R FOG
MANISTEE       CLOUDY    68  64  88 CALM      29.91R
OSCODA         CLOUDY    73  69  86 E5        29.94S
PELLSTON       LGT RAIN  66  65  96 E3        29.98S
ROGERS CITY    CLOUDY    68  64  86 N3        29.99S
TRAVERSE CITY  RAIN      70  67  90 NE3       29.91R FOG
$$
MIZ007>008-015-031500-
EASTERN UPPER MICHIGAN

CITY           SKY/WX    TMP DP  RH WIND       PRES   REMARKS
KINROSS        CLOUDY    68  64  88 CALM      29.99R
MACKINAC ISLAN LGT RAIN  65  64  96 E9        29.98R
NEWBERRY       MOSUNNY   67  65  93 NE6       29.96S
S. S. MARIE    CLOUDY    70  65  84 NE5       29.98F
MUNISING         N/A     69  62  78 N3        29.97S
$$
MIZ004>006-011>014-085-031500-
CENTRAL UPPER MICHIGAN

CITY           SKY/WX    TMP DP  RH WIND       PRES   REMARKS
MANISTIQUE     MOSUNNY   73  64  74 E8        29.95R
ESCANABA       CLOUDY    68  64  88 N6        29.94R
MENOMINEE      CLOUDY    66  64  94 NE9       29.92R
SAWYER-GWINN   CLOUDY    63  61  94 N6        29.99S
$$
MIZ001>003-009>011-084-031500-
WESTERN UPPER MICHIGAN

CITY           SKY/WX    TMP DP  RH WIND       PRES   REMARKS
IRON MOUNTAIN  CLOUDY    65  63  93 N6        29.96S FOG
HOUGHTON       PTSUNNY   62  59  90 SE6       30.00R
COPPER HARBOR    N/A     63  56  78 VRB3      30.00R
IRONWOOD       CLOUDY    63  61  94 CALM      29.98R
$$

ABBREVIATIONS USED IN REMARKS
   TC - TEMPERATURE IN CELSIUS
  WCI - WIND CHILL INDEX
   HX - HEAT INDEX
  VSB - VISIBILITY



USA.gov is the U.S. government's official web portal to all federal, state and local government web resources and services.